Regional Weather Roundup
Issued by NWS Green Bay, WI

Home | Current Version | Previous Version | Graphics & Text | Print | Product List | Glossary Off
Versions: 1 2 3 4 5 6 7 8 9 10 11 12 13 14 15 16 17 18 19 20 21 22 23 24 25 26 27 28 29 30 31 32 33 34 35 36 37 38 39 40 41 42 43 44 45 46 47 48 49 50

000
ASUS43 KGRB 032211
RWRGRB

NORTH-CENTRAL AND NORTHEAST WISCONSIN REGIONAL WEATHER ROUNDUP
NATIONAL WEATHER SERVICE GREEN BAY WI
500 PM CDT MON AUG 03 2015

WIZ005-009-010>012-018-019-032300-
NORTH CENTRAL WISCONSIN

CITY           SKY/WX    TMP DP  RH WIND       PRES   REMARKS
IRONWOOD       MOSUNNY   68  54  60 NW14      29.81S
MANITOWISH WTR PTSUNNY   67  53  60 NW9G18    29.85S
ARBOR VITAE    PTSUNNY   67  54  62 NW8       29.85S
EAGLE RIVER    PTSUNNY   66  50  56 NW10      29.84S
LAND O LAKES   CLOUDY    66  50  57 NW7       29.85S
RHINELANDER    PTSUNNY   68  52  56 W12G21    29.86R
PHILLIPS       CLOUDY    66  54  64 NW12G18   29.87R
ANTIGO         CLOUDY    67  53  59 NW8       29.85R
TOMAHAWK       CLOUDY    67  54  61 W7        29.86S
MERRILL        NOT AVBL
$$

WIZ013-073-032300-
NORTHEAST WISCONSIN

CITY           SKY/WX    TMP DP  RH WIND       PRES   REMARKS
IRON MOUNTAIN  SUNNY     70  50  49 NW15      29.79S
MARINETTE      MOSUNNY   73  52  46 NW10G17   29.78R
OCONTO         SUNNY     75  52  43 NW10G16   29.79R
$$

WIZ017-030-035>037-045-032300-
CENTRAL WISCONSIN

CITY           SKY/WX    TMP DP  RH WIND       PRES   REMARKS
MEDFORD        CLOUDY    68  54  59 NW10G17   29.88R
WAUSAU         MOSUNNY   74  52  46 W16G23    29.83S
MOSINEE        PTSUNNY   72  52  49 NW21G29   29.86S
MARSHFIELD     PTSUNNY   75  52  44 NW16G23   29.86S
WISC RAPIDS    PTSUNNY   76  49  38 NW14      29.86S
STEVENS POINT  PTSUNNY   73  52  48 NW10G18   29.85S
WAUPACA        PTSUNNY   78  51  39 NW17      29.83S
SHAWANO        CLOUDY    74  53  47 NW10      29.82R
CLINTONVILLE   CLOUDY    73  50  43 NW9       29.81S
$$

WIZ038-039-048-051-032300-
FOX VALLEY

CITY           SKY/WX    TMP DP  RH WIND       PRES   REMARKS
NWS GREEN BAY  PTSUNNY   74  54  49 W13G20    29.80R
APPLETON       PTSUNNY   73  48  40 NW14G23   29.82S
OSHKOSH        PTSUNNY   76  50  40 W14       29.82R
FOND DU LAC    PTSUNNY   78  51  38 NW13      29.82S
$$

WIZ022-050-052-032300-
EAST CENTRAL WISCONSIN

CITY           SKY/WX    TMP DP  RH WIND       PRES   REMARKS
STURGEON BAY   CLOUDY    72  52  49 NW13G18   29.81R
MANITOWOC      PTSUNNY   76  49  38 MISG      29.80S
SHEBOYGAN      MOSUNNY   77  52  41 W10G20    29.81S
$$

LMZ563-521-522-541>543-032300-
LAKESHORE

STATION/POSITION TIME  TEMP    WIND        PRES    VSBY  WAVE
                       AIR SEA DIR/SP/G                  HT/PER
                 (UTC) (F)     (DEG/KT/KT) (MB)    (MI)  (FT/S)
SHEBOYGAN LKSHOR 2200   77     300/ 13/ 17 1009.4R
KEWAUNEE LKSHORE 2100   75     310/ 10/ 14 1008.1F
ALGOMA MARINA    2142          330/  6/ 10   N/A
NORTHPORT PIER   2100   67     360/ 12/ 17 1008.1R
N MID LAKE BUOY  2150   65 68  320/ 10/ 12 1008.0R         2/ 3
S GREEN BAY BUOY 2200   71 70  310/ 12/ 14 1010.1
SISTER BAY LKSHO 2118   71     340/ 17/ 19   N/A
CHAMBERS ISLAND  2100   71     300/ 11/ 15 1008.1R
MENOMINEE LKSHOR 2100   70     310/  9/ 16 1009.0R
$$


USA.gov is the U.S. government's official web portal to all federal, state and local government web resources and services.